This is the latest recevied weather packets stored in our database for station/object W4OA. If no packets are shown the sender has not sent any weather packets the latest 10 day(s).
| Time | Temp. | Humidity | Pressure | Rain* | Wind** | Luminosity | Snow |
|---|---|---|---|---|---|---|---|
| 1778096700 | 27.22° C | 66% | 1008 hPa | 0 mm | - | 0 W/m² | - |
| 1778096399 | 26.67° C | 68% | 1008 hPa | 0 mm | - | 0 W/m² | - |
| 1778096098 | 26.67° C | 68% | 1008 hPa | 0 mm | - | 0 W/m² | - |
| 1778095798 | 27.22° C | 67% | 1008 hPa | 0 mm | - | 0 W/m² | - |
| 1778095501 | 27.22° C | 68% | 1008 hPa | 0 mm | - | 0 W/m² | - |
| 1778095199 | 26.11° C | 72% | 1008 hPa | 0 mm | - | 0 W/m² | - |
| 1778094899 | 25.56° C | 70% | 1008 hPa | 0 mm | - | 0 W/m² | - |
| 1778094601 | 26.11° C | 72% | 1009 hPa | 0 mm | - | 0 W/m² | - |
| 1778094299 | 25.56° C | 73% | 1009 hPa | 0 mm | - | 0 W/m² | - |
| 1778093999 | 25.56° C | 72% | 1009 hPa | 0 mm | - | 0 W/m² | - |
| 1778093699 | 25.56° C | 73% | 1009 hPa | 0 mm | - | 0 W/m² | - |
| 1778093398 | 25.56° C | 72% | 1009 hPa | 0 mm | - | 0 W/m² | - |
| 1778093099 | 25.56° C | 72% | 1009 hPa | 0 mm | - | 0 W/m² | - |
| 1778092799 | 25.56° C | 72% | 1009 hPa | 0 mm | - | 0 W/m² | - |
| 1778092499 | 26.11° C | 71% | 1009 hPa | 0 mm | - | 0 W/m² | - |
| 1778092199 | 25.56° C | 71% | 1009 hPa | 0 mm | - | 0 W/m² | - |
| 1778091899 | 25.56° C | 73% | 1009 hPa | 0 mm | - | 0 W/m² | - |
| 1778091598 | 25° C | 75% | 1009 hPa | 0 mm | - | 0 W/m² | - |
| 1778091299 | 25° C | 75% | 1009 hPa | 0 mm | - | 0 W/m² | - |
| 1778091000 | 25° C | 76% | 1009 hPa | 0 mm | - | 0 W/m² | - |
| 1778090699 | 24.44° C | 76% | 1009 hPa | 0 mm | - | 0 W/m² | - |
| 1778090399 | 24.44° C | 75% | 1009 hPa | 0 mm | - | 0 W/m² | - |
| 1778090102 | 24.44° C | 76% | 1009 hPa | 0 mm | - | 0 W/m² | - |
| 1778089800 | 24.44° C | 76% | 1009 hPa | 0 mm | - | 0 W/m² | - |
| 1778089499 | 24.44° C | 77% | 1009 hPa | 0 mm | - | 0 W/m² | - |
* Rain latest hour (hover to see other rain measurements)
** Current wind speed in m/s (hover to see current wind gust speed)